TimeEDT,TemperatureF,Dew PointF,Humidity,Sea Level PressureIn,VisibilityMPH,Wind Direction,Wind SpeedMPH,Gust SpeedMPH,PrecipitationIn,Events,Conditions,WindDirDegrees,DateUTC
12:12 AM,75.2,66.2,73,29.85,10.0,WSW,11.5,24.2,N/A,,Mostly Cloudy,250,2013-07-20 04:12:00
12:23 AM,75.2,66.2,73,29.83,10.0,SSW,9.2,17.3,N/A,Thunderstorm,Thunderstorm,210,2013-07-20 04:23:00
12:51 AM,73.0,68.0,84,29.84,4.0,WSW,12.7,18.4,0.04,Rain-Thunderstorm,Thunderstorms and Rain,250,2013-07-20 04:51:00
1:33 AM,71.6,68.0,88,29.82,5.0,South,13.8,-,0.13,Rain,Rain,170,2013-07-20 05:33:00
1:43 AM,71.6,68.0,88,29.81,6.0,South,16.1,-,0.16,Rain-Thunderstorm,Rain,180,2013-07-20 05:43:00
1:51 AM,71.1,68.0,90,29.79,7.0,South,12.7,-,0.18,Rain-Thunderstorm,Rain,180,2013-07-20 05:51:00
1:56 AM,71.6,68.0,88,29.81,7.0,South,15.0,-,0.01,Rain-Thunderstorm,Rain,190,2013-07-20 05:56:00
2:35 AM,71.6,66.2,83,29.79,7.0,South,9.2,-,0.10,Rain,Light Rain,190,2013-07-20 06:35:00
2:51 AM,70.0,66.9,90,29.78,3.0,SSW,12.7,-,0.15,Rain,Rain,210,2013-07-20 06:51:00
2:58 AM,69.8,66.2,88,29.79,3.0,SSW,10.4,-,0.02,Rain-Thunderstorm,Thunderstorms and Rain,210,2013-07-20 06:58:00
3:39 AM,69.8,66.2,88,29.84,4.0,SW,9.2,-,0.12,Rain-Thunderstorm,Rain,230,2013-07-20 07:39:00
3:44 AM,69.8,66.2,88,29.82,1.8,SW,6.9,-,0.15,Rain-Thunderstorm,Heavy Rain,220,2013-07-20 07:44:00
3:51 AM,70.0,66.9,90,29.80,2.0,SSW,6.9,-,0.19,Rain-Thunderstorm,Light Rain,210,2013-07-20 07:51:00
3:58 AM,69.8,66.2,88,29.82,7.0,South,6.9,-,0.00,Rain-Thunderstorm,Light Rain,190,2013-07-20 07:58:00
4:20 AM,69.8,66.2,88,29.82,6.0,South,5.8,-,0.04,Rain-Thunderstorm,Rain,180,2013-07-20 08:20:00
4:46 AM,69.8,66.2,88,29.81,5.0,SSW,6.9,-,0.10,Rain,Rain,210,2013-07-20 08:46:00
4:51 AM,70.0,66.9,90,29.79,6.0,SSW,12.7,-,0.10,Rain,Light Rain,210,2013-07-20 08:51:00
5:06 AM,69.8,66.2,88,29.81,6.0,SSW,13.8,-,0.03,Rain-Thunderstorm,Rain,200,2013-07-20 09:06:00
5:39 AM,69.8,66.2,88,29.84,5.0,SSW,11.5,18.4,0.14,Rain,Rain,210,2013-07-20 09:39:00
5:51 AM,70.0,66.0,87,29.81,5.0,South,9.2,-,0.18,Rain,Rain,180,2013-07-20 09:51:00
6:51 AM,69.1,66.0,90,29.73,8.0,South,21.9,-,0.14,Rain,Light Rain,170,2013-07-20 10:51:00
7:51 AM,70.0,66.0,87,29.81,10.0,SSW,12.7,-,0.02,,Partly Cloudy,210,2013-07-20 11:51:00
8:51 AM,71.1,66.0,84,29.80,10.0,Variable,4.6,-,N/A,,Scattered Clouds,0,2013-07-20 12:51:00
9:51 AM,71.1,64.9,81,29.83,10.0,WSW,10.4,-,N/A,,Scattered Clouds,240,2013-07-20 13:51:00
10:51 AM,72.0,66.0,81,29.83,10.0,SW,10.4,18.4,N/A,,Mostly Cloudy,230,2013-07-20 14:51:00
11:51 AM,75.0,66.9,76,29.83,10.0,SW,11.5,-,N/A,,Partly Cloudy,230,2013-07-20 15:51:00
12:51 PM,75.9,66.9,74,29.83,10.0,WSW,9.2,-,N/A,,Mostly Cloudy,250,2013-07-20 16:51:00
1:21 PM,75.2,66.2,73,29.84,10.0,WSW,12.7,17.3,N/A,,Overcast,250,2013-07-20 17:21:00
1:51 PM,75.0,69.1,82,29.83,10.0,West,9.2,16.1,N/A,,Overcast,260,2013-07-20 17:51:00
2:51 PM,77.0,70.0,79,29.84,10.0,West,6.9,-,N/A,,Overcast,260,2013-07-20 18:51:00
3:15 PM,78.8,69.8,74,29.85,10.0,WSW,11.5,19.6,N/A,,Mostly Cloudy,250,2013-07-20 19:15:00
3:27 PM,78.8,69.8,74,29.85,10.0,West,10.4,-,N/A,,Mostly Cloudy,270,2013-07-20 19:27:00
3:51 PM,78.1,70.0,76,29.83,10.0,West,10.4,18.4,N/A,,Mostly Cloudy,260,2013-07-20 19:51:00
4:32 PM,78.8,71.6,78,29.85,10.0,West,9.2,-,N/A,,Mostly Cloudy,280,2013-07-20 20:32:00
4:37 PM,77.0,71.6,83,29.85,10.0,West,10.4,-,N/A,,Scattered Clouds,270,2013-07-20 20:37:00
4:51 PM,78.1,70.0,76,29.83,10.0,West,8.1,-,N/A,,Partly Cloudy,270,2013-07-20 20:51:00
5:51 PM,79.0,66.9,66,29.84,10.0,West,8.1,-,N/A,,Clear,270,2013-07-20 21:51:00
6:51 PM,77.0,64.9,66,29.84,10.0,West,4.6,-,N/A,,Partly Cloudy,260,2013-07-20 22:51:00
7:51 PM,77.0,64.0,64,29.85,10.0,Calm,Calm,-,N/A,,Clear,0,2013-07-20 23:51:00
8:51 PM,75.0,64.9,71,29.87,10.0,WSW,3.5,-,N/A,,Clear,240,2013-07-21 00:51:00
9:51 PM,72.0,66.0,81,29.89,10.0,Calm,Calm,-,N/A,,Clear,0,2013-07-21 01:51:00
10:51 PM,70.0,64.9,84,29.90,10.0,South,3.5,-,N/A,,Clear,180,2013-07-21 02:51:00
11:51 PM,69.1,64.9,87,29.91,10.0,South,3.5,-,N/A,,Clear,180,2013-07-21 03:51:00